Miscellaneous Local Product
Issued by NWS Hastings, NE

Home | Current Version | Previous Version | Graphics & Text | Print | Product List | Glossary On
Versions: 1 2 3 4 5 6 7 8 9 10 11 12 13 14 15 16 17 18 19 20 21 22 23 24 25 26 27 28 29 30 31 32 33 34 35 36 37 38 39 40 41 42 43 44 45 46 47 48 49 50
000
AXUS43 KGID 292302
MISGRI

GID CWA HOURLY WEATHER ROUNDUP
NATIONAL WEATHER SERVICE HASTINGS NE
600 PM CDT MON JUN 29 2015

NOTE: "FAIR" INDICATES FEW OR NO CLOUDS BELOW 12,000 FEET WITH NO
SIGNIFICANT WEATHER AND/OR OBSTRUCTIONS TO VISIBILITY.

...SOUTH CENTRAL NEBRASKA...

CITY           SKY/WX    TMP DP  RH WIND       PRES   REMARKS
GRAND ISLAND   SUNNY     90  56  31 NW7       29.96F
HASTINGS       SUNNY     88  60  38 VRB6      29.97F
KEARNEY        SUNNY     88  59  37 N9        29.98F
ORD            SUNNY     90  54  29 N12       29.96S
YORK           SUNNY     86  59  39 N6        29.96S
AURORA         SUNNY     87  56  35 CALM      29.96F
LEXINGTON      SUNNY     93  54  26 NE7       29.99F HX  90
HOLDREGE       SUNNY     89  54  30 N5        30.00S
HEBRON         SUNNY     86  55  35 CALM      29.96F

...NEBRASKA PANHANDLE...

CITY           SKY/WX    TMP DP  RH WIND       PRES   REMARKS
CHADRON        MOSUNNY   82  66  58 N3        30.06S
ALLIANCE       SUNNY     88  54  31 NE9       30.09F
SCOTTSBLUFF    MOSUNNY   92  53  26 VRB5      30.08F
SIDNEY         SUNNY     88  53  30 N7        30.13F

...WESTERN AND NORTH CENTRAL NEBRASKA...

CITY           SKY/WX    TMP DP  RH WIND       PRES   REMARKS
VALENTINE      SUNNY     89  60  37 N3        30.01F
AINSWORTH      SUNNY     88  56  33 N7        30.02S
ONEILL         SUNNY     87  60  40 NE6       29.98S
BROKEN BOW     SUNNY     89  61  38 N6        30.00F
IMPERIAL       SUNNY     89  53  29 CALM      30.06F
NORTH PLATTE   MOSUNNY   89  54  30 CALM      30.01F
MCCOOK         SUNNY     93  56  28 N7        30.00F HX  91

...EASTERN NEBRASKA...

CITY           SKY/WX    TMP DP  RH WIND       PRES   REMARKS
NORFOLK        SUNNY     85  60  42 N8        29.94S
SO SIOUX CITY  SUNNY     83  59  44 NW9       29.91R
TEKAMAH        SUNNY     85  62  46 N10       29.90F
COLUMBUS       SUNNY    N/A N/A N/A MISG        N/A
ALBION         SUNNY     85  56  36 N9        29.96F
OMAHA EPPLEY   CLOUDY    85  61  44 NW8       29.90S
OFFUTT AFB     SUNNY     83  63  50 N5        29.90S
MILLARD        SUNNY     85  62  45 NW8       29.91S
LINCOLN        SUNNY     88  58  36 NW7       29.93F HAZE
NEBRASKA CITY  MOSUNNY   85  51  31 NW8       29.92S
BEATRICE       SUNNY     85  60  41 NW7       29.94F
FALLS CITY     SUNNY     84  64  50 N7        29.90F

...NORTHERN KANSAS...

CITY           SKY/WX    TMP DP  RH WIND       PRES   REMARKS
GOODLAND       PTSUNNY   89  50  26 E6        30.08F
HILL CITY      SUNNY     96  52  22 N8        29.98F HX  93
NORTON         PTCLDY    93  46  20 NE9       29.98F
PHILLIPSBURG   SUNNY     97  52  21 N5        29.96F HX  94
SMITH CENTER   SUNNY     91  52  25 N5        29.96F
HAYS           SUNNY     97  50  20 N10G17    29.97F HX  94
RUSSELL        SUNNY     95  50  21 N10       29.95F HX  92
CONCORDIA      SUNNY     87  58  37 N8        29.95F
SALINA         SUNNY     93  54  26 N7        29.94F HX  91
TOPEKA         SUNNY     86  62  44 NW7       29.91F



USA.gov is the U.S. government's official web portal to all federal, state and local government web resources and services.